Dewpoint
71 73 73 73 73 73 73 73 73 72 72 73 72 72 72 73 71 72 73 73 73 73 74 74 75 74 74 74 74 75 76 76 77 77 77 76 75 75 75 75 75 75 76 76 75 75 76 76 76 76 76 75 74 73 72 72 72 70 70 69 68 70 69 68 66 66 68 68 66 65 66 68 64 69 69 68 70 71 69 71 72 71 70 70 70
72 72 73 73 73 73 73 73 73 72 72 72 72 72 72 72 73 73 72 73 73 72 73 73 74 74 74 74 75 75 76 77 75 76 76 76 75 74 74 75 75 74 75 75 75 75 75 75 75 76 76 75 74 73 73 71 71 70 71 70 69 70 70 68 68 67 66 69 68 69 67 68 67 69 69 67 66 70 71 70 70 71 70 70 70
70 72 73 73 73 73 73 73 73 73 71 71 70 70 71 72 73 72 71 71 73 72 72 72 74 75 74 75 76 76 76 76 76 76 76 76 76 75 75 75 75 75 75 75 75 76 75 74 74 75 74 75 75 74 73 73 72 72 71 71 71 71 71 71 69 68 68 67 69 68 67 69 67 67 69 69 70 70 70 70 68 69 70 70 69
70 72 72 72 72 73 73 73 71 71 71 71 70 70 70 71 72 72 71 70 71 73 73 73 74 75 75 75 75 76 76 75 75 76 76 76 76 76 76 76 75 75 75 75 75 76 75 75 74 74 74 74 75 75 74 74 73 73 73 73 73 72 72 72 71 69 69 68 70 69 69 69 68 69 69 69 67 67 68 68 69 69 69 69 69
69 70 71 70 71 72 72 72 71 71 71 70 70 70 70 70 71 71 71 70 71 72 73 73 74 75 73 74 75 75 75 75 75 74 75 76 76 75 76 76 76 76 76 76 76 76 76 75 75 75 75 74 74 75 74 74 74 73 73 73 72 72 72 71 72 71 70 69 69 71 71 70 70 70 69 68 68 69 71 70 68 69 71 68 66
69 70 70 70 71 72 72 71 71 71 71 70 70 70 70 70 70 71 71 71 71 71 72 72 73 74 74 74 75 75 75 75 76 75 74 74 75 75 75 76 75 76 76 75 76 76 75 76 75 75 75 74 74 75 75 74 74 74 74 73 73 73 73 72 72 71 71 70 70 69 71 70 70 71 71 70 69 68 68 69 71 71 71 69 67
70 69 69 69 71 73 72 71 71 71 71 71 70 70 70 69 69 70 71 71 70 70 70 72 73 73 74 74 74 75 75 75 76 76 75 75 75 76 74 75 75 75 75 75 74 75 75 75 75 76 75 75 75 75 75 75 73 74 74 74 74 73 72 72 72 72 71 71 70 70 70 70 70 69 70 71 70 69 68 67 68 69 71 71 70
70 70 70 70 72 73 72 72 71 72 72 73 72 71 70 70 71 71 71 71 70 70 70 71 72 73 73 74 74 75 75 75 76 76 76 75 75 75 75 75 74 75 75 75 74 74 74 74 74 75 75 76 76 76 76 75 75 74 74 74 74 73 72 72 71 71 70 70 69 69 70 70 70 71 70 70 69 69 69 68 67 68 69 71 71
70 70 70 71 72 73 73 73 73 73 72 73 72 72 71 72 72 72 72 71 70 70 71 71 72 73 73 73 74 74 74 74 74 75 75 75 75 74 75 75 75 75 75 74 74 75 74 74 74 74 75 76 73 73 73 74 75 75 75 74 74 73 72 72 71 71 71 71 71 70 69 69 70 70 69 69 69 69 70 71 69 69 69 68 70
70 70 70 72 73 73 73 74 73 73 73 73 74 73 72 72 72 72 72 72 72 72 72 72 71 71 72 73 74 74 74 74 72 68 69 75 75 74 75 75 75 75 75 75 74 74 74 74 73 75 73 71 70 69 67 67 68 72 75 75 74 74 73 73 72 72 72 71 70 70 69 68 68 70 69 69 70 70 69 70 69 68 69 68 69
71 71 71 72 73 73 74 73 74 73 74 74 74 73 73 73 73 73 73 72 72 73 73 72 71 71 71 71 72 73 73 73 68 65 65 66 73 75 75 75 76 75 75 75 75 74 74 75 75 75 75 71 72 67 67 66 66 66 66 67 71 74 73 73 72 73 72 71 71 71 70 70 70 69 69 68 69 69 69 69 68 68 68 67 67
70 71 71 73 73 73 73 73 73 73 73 73 74 74 73 73 73 73 73 73 73 73 72 72 73 71 71 71 71 72 72 68 65 64 64 64 67 74 74 74 74 74 75 74 74 74 74 74 74 74 75 75 75 76 71 67 65 65 65 64 65 66 67 72 73 73 73 72 72 72 71 71 71 71 70 69 70 70 71 70 69 69 68 68 68
70 71 71 72 73 73 73 73 73 73 73 73 73 73 73 73 73 73 72 73 73 73 73 72 72 72 72 72 71 71 71 67 64 63 63 63 63 68 73 73 73 73 74 74 74 74 75 75 74 74 74 75 75 75 76 76 67 64 64 64 64 63 63 63 65 72 73 73 72 72 72 72 72 72 72 72 72 71 71 69 70 69 69 69 68
71 71 72 72 73 73 73 73 73 73 73 73 73 73 73 73 73 73 72 73 73 73 72 73 73 73 73 73 73 72 71 67 62 62 62 62 62 64 73 73 73 73 74 74 74 74 75 75 75 74 75 76 76 75 76 76 76 76 74 72 72 71 64 62 62 62 65 69 71 71 72 73 72 73 73 72 72 71 71 70 70 69 69 69 70
71 71 72 72 73 73 73 73 73 73 73 73 73 73 73 73 73 73 71 72 73 73 72 72 73 73 72 72 72 71 70 65 61 60 60 60 61 63 73 73 73 74 74 74 75 74 75 75 75 75 75 75 75 75 75 76 76 75 75 74 74 74 74 71 69 70 69 69 69 70 71 72 72 73 74 73 73 73 73 72 71 71 71 71 71
71 71 72 72 72 72 72 73 73 73 73 73 73 73 73 73 73 73 72 71 72 72 72 72 72 72 72 72 71 71 71 63 61 60 59 59 60 68 72 74 74 73 74 74 75 75 75 75 75 75 76 76 73 68 70 76 75 74 74 73 74 74 74 74 67 67 71 72 71 71 71 72 67 73 73 72 72 72 74 73 72 71 70 68 68
71 71 71 71 71 72 72 72 73 73 73 73 73 73 73 73 73 73 72 71 71 71 72 71 72 72 72 72 72 72 71 66 60 58 58 58 61 71 73 73 74 73 74 74 74 75 75 76 76 75 75 75 71 66 64 67 75 74 74 73 73 73 72 77 65 62 62 62 62 63 62 62 62 61 60 60 66 67 70 68 68 68 67 67 67
71 72 71 71 71 72 72 72 73 73 73 73 72 72 72 73 73 73 72 71 70 71 71 72 72 72 71 71 71 72 71 68 58 57 57 57 63 72 73 73 73 74 74 74 74 75 75 73 75 75 75 75 68 64 63 68 75 74 73 73 73 72 73 73 74 71 62 60 59 59 60 61 61 60 60 59 59 61 67 66 67 68 67 67 67
71 71 71 72 72 72 72 72 73 73 73 73 73 72 73 73 73 73 72 72 71 72 72 72 72 72 71 71 70 70 71 68 59 57 56 55 63 72 73 72 73 73 73 73 74 74 75 74 72 71 72 72 65 63 62 68 74 74 74 73 72 72 74 76 76 75 74 71 71 71 70 66 68 69 69 63 62 64 67 67 68 68 67 68 68
71 72 72 72 72 73 73 74 74 72 73 73 74 73 73 73 73 73 72 72 72 71 71 72 72 71 71 71 70 71 71 72 71 57 55 55 57 71 73 72 72 72 73 72 72 74 74 75 73 64 62 62 61 60 60 61 73 75 74 73 73 73 77 76 76 74 72 71 71 72 72 73 72 71 71 71 71 72 71 70 70 69 67 66 66
73 73 73 72 72 73 73 73 73 72 73 73 73 73 73 73 73 73 72 72 72 72 72 72 71 72 71 72 71 71 71 71 73 57 55 54 55 60 72 73 72 72 73 73 72 72 73 73 73 68 61 60 59 57 56 56 62 74 74 73 74 71 69 72 69 68 68 69 69 70 71 72 71 71 69 69 67 67 67 68 69 69 68 66 65
74 74 75 73 73 73 73 74 74 72 74 74 75 74 74 74 73 73 72 73 73 73 74 73 72 72 72 72 73 73 72 69 72 61 56 54 54 55 69 72 72 73 73 73 73 72 73 73 75 71 63 59 57 55 54 55 56 69 73 58 59 61 69 69 70 69 69 69 70 69 69 68 66 66 64 64 64 64 64 65 67 67 67 66 65
74 74 74 73 74 74 74 74 74 73 74 75 75 75 75 74 75 75 74 74 74 74 74 73 73 72 73 73 73 74 75 73 64 71 56 54 53 53 58 66 64 74 72 72 73 73 73 74 75 72 62 58 56 54 54 53 60 66 53 55 58 61 66 69 69 69 68 68 68 68 67 67 67 67 66 66 64 65 65 66 67 66 67 66 66
74 74 74 74 74 74 74 74 75 74 75 76 75 75 75 75 75 75 75 74 73 73 73 73 73 71 72 72 73 74 75 74 68 63 67 54 54 53 54 57 61 70 72 71 72 72 74 74 74 56 54 50 49 50 52 60 65 51 53 55 59 62 68 68 67 67 67 66 68 68 68 67 66 65 63 64 63 66 66 66 67 67 67 66 66
74 74 73 74 74 74 75 75 75 75 76 76 75 75 75 75 75 75 74 74 73 73 73 73 73 73 72 72 73 73 74 74 74 70 62 59 54 53 53 54 56 58 70 72 73 73 65 53 49 49 49 49 50 52 55 56 54 54 54 57 64 67 67 66 65 66 66 67 67 67 66 66 65 65 66 67 67 67 68 66 65 65 65 66 66
74 74 73 74 74 74 74 74 75 76 75 75 75 75 75 75 74 75 74 73 73 73 72 72 72 73 72 72 73 73 74 75 74 74 67 64 59 55 54 54 56 57 62 71 61 56 53 52 52 51 52 57 66 67 65 63 57 57 58 63 66 66 65 65 66 66 67 65 65 64 63 63 63 65 66 66 66 65 64 64 63 63 62 62 61
75 76 75 75 75 74 74 73 73 74 75 74 74 75 75 75 75 74 74 73 73 73 73 73 72 72 72 73 73 74 75 74 74 74 74 73 70 67 61 60 57 59 61 65 64 65 63 65 65 62 61 60 63 61 61 60 63 63 63 64 64 64 65 66 66 66 65 64 63 63 63 62 63 64 64 63 63 63 64 62 60 60 60 59 59
75 75 75 75 75 75 75 75 75 73 74 74 73 74 74 74 74 74 74 73 72 72 73 72 72 72 72 73 74 73 73 73 74 73 73 73 73 72 69 66 64 64 65 66 69 69 66 59 60 65 65 64 63 63 63 64 64 63 64 63 63 63 63 63 64 65 65 63 62 63 62 63 63 62 61 61 61 62 63 61 59 59 58 59 59
77 76 75 75 75 75 75 75 75 74 75 76 67 63 70 74 74 74 75 75 74 73 73 73 74 73 73 73 73 73 74 74 74 67 74 66 71 72 72 69 67 68 66 62 69 69 67 67 67 67 66 64 63 62 61 62 62 63 64 63 63 63 63 63 63 63 63 64 63 63 62 62 62 62 61 60 62 61 62 59 59 59 59 59 58
78 78 77 76 76 75 75 74 74 74 74 71 66 61 50 45 50 69 76 66 65 63 65 75 74 73 73 74 75 73 73 73 65 61 61 59 59 60 63 61 60 64 58 59 65 68 68 68 67 66 65 63 63 62 60 61 62 61 61 60 61 60 61 61 61 61 63 63 62 61 61 60 60 60 61 60 61 60 60 58 58 59 59 57 57
77 77 76 77 76 76 76 75 76 76 74 72 71 69 67 62 45 42 48 51 49 52 54 54 57 63 74 76 66 49 50 48 51 53 53 53 53 52 51 50 50 50 54 66 68 68 67 65 64 65 65 65 63 61 61 61 62 61 59 59 59 60 59 58 58 59 60 60 60 60 60 60 60 60 59 59 59 59 60 59 57 58 57 56 57
77 77 77 76 76 76 76 75 74 74 73 72 72 71 70 69 66 49 43 45 44 41 40 42 46 52 56 66 67 65 51 44 44 45 44 44 44 44 44 45 47 50 53 58 67 66 65 63 63 63 63 61 61 60 60 60 62 60 58 57 57 58 59 58 60 60 59 58 58 59 59 59 58 59 58 58 58 58 58 56 57 56 56 57 57
76 76 76 75 75 75 74 74 74 73 73 72 72 72 71 70 68 63 57 45 43 43 42 42 40 41 47 48 51 53 47 43 43 42 43 44 45 46 46 47 48 50 55 64 66 64 64 64 63 63 62 62 61 61 62 62 62 61 59 59 58 59 60 62 62 61 60 59 60 58 57 58 57 59 58 58 57 57 57 56 56 57 57 56 57
76 75 75 75 75 75 74 74 74 73 73 73 73 73 72 72 70 67 64 63 62 55 48 43 42 42 41 42 42 43 43 44 44 45 45 47 48 49 51 53 48 50 56 64 64 62 62 61 61 61 61 61 60 60 61 61 61 60 60 60 59 60 62 63 62 59 58 59 57 56 56 57 57 58 58 57 57 57 57 56 56 56 56 56 56
74 72 72 73 75 75 74 74 73 74 73 73 72 72 73 72 70 69 69 68 67 62 58 54 46 43 48 45 43 44 45 46 47 47 48 48 49 50 54 64 63 63 64 64 62 62 61 61 61 61 61 60 61 61 62 62 61 61 60 60 60 59 61 60 58 60 58 58 57 57 57 59 59 58 57 58 57 57 56 56 56 56 56 56 56
72 72 72 72 73 74 73 74 73 73 73 73 73 72 70 69 69 68 66 65 61 58 56 54 53 48 45 43 44 45 46 47 47 48 49 50 51 54 63 63 63 62 61 62 61 61 61 61 62 61 61 61 61 61 61 61 61 61 61 60 59 60 60 59 59 60 60 60 58 58 58 58 58 58 57 56 58 57 56 56 56 56 56 56 56
69 69 70 70 70 71 72 72 73 72 69 69 70 69 67 66 65 65 65 63 61 59 57 57 58 58 56 56 50 44 44 45 46 47 47 49 53 62 64 63 62 62 62 62 62 62 61 62 62 62 61 61 61 60 61 61 61 62 59 61 61 61 60 60 59 60 60 59 59 59 60 58 58 58 56 57 56 56 56 57 56 55 56 55 54
69 68 68 70 69 69 70 69 67 65 68 67 67 66 65 64 64 64 64 62 61 60 60 60 59 60 60 60 59 58 56 51 52 53 53 54 61 65 65 63 62 61 61 61 62 61 61 61 62 61 61 61 61 61 60 59 60 60 60 60 60 60 57 59 59 61 61 60 58 59 59 57 57 57 57 56 56 56 56 57 55 54 55 54 54
65 61 61 62 65 68 67 66 66 67 66 65 64 64 64 64 65 64 63 62 61 61 61 61 60 60 60 61 62 63 61 62 62 62 62 62 61 62 62 61 61 61 61 61 61 61 61 61 62 62 61 61 61 61 61 60 60 60 60 60 59 59 59 59 60 60 59 59 58 58 58 58 57 57 58 55 54 56 56 56 55 54 53 53 53
65 64 63 62 65 66 66 66 66 66 65 65 64 64 65 64 63 62 63 62 62 61 60 61 61 61 61 62 62 62 60 61 61 61 61 60 61 61 61 60 60 60 61 61 60 61 60 60 61 61 61 61 60 60 60 60 60 60 60 59 59 59 59 59 59 59 59 58 58 58 58 58 59 59 56 54 54 55 57 55 55 55 55 54 54
64 64 63 62 62 65 66 66 66 65 64 64 63 63 62 62 61 61 60 60 60 60 59 60 59 59 58 55 52 55 60 60 60 60 60 60 60 60 60 60 60 60 60 61 60 60 60 60 59 59 59 59 60 60 60 60 59 59 59 59 59 59 58 58 59 59 58 59 58 58 59 59 58 59 56 56 55 54 55 55 53 53 53 54 54
62 62 63 62 62 63 62 63 63 63 63 62 61 61 61 60 60 59 59 59 58 58 58 57 57 56 52 49 49 51 59 60 60 59 59 58 57 57 57 57 56 57 57 58 58 58 57 56 55 55 55 55 55 56 56 57 57 57 57 57 58 57 57 56 57 58 58 57 58 58 58 59 58 57 58 55 57 56 55 53 52 52 52 53 54
62 61 61 61 61 60 60 60 60 60 60 59 59 59 59 59 59 58 58 58 57 57 57 56 56 56 54 50 52 53 58 58 58 56 56 56 55 56 54 53 51 50 50 52 54 54 53 51 50 50 50 50 49 49 48 49 51 51 52 53 53 53 54 53 53 54 54 55 56 57 58 58 57 56 56 56 56 56 55 55 53 51 51 52 52
59 59 58 58 58 58 58 57 57 57 56 57 57 56 56 57 56 56 56 56 56 55 54 54 54 54 54 53 53 54 54 54 53 52 52 51 50 49 49 48 48 47 47 48 48 48 48 47 46 47 48 47 47 47 46 45 45 45 46 47 47 47 48 49 50 50 50 51 53 55 55 55 56 55 54 54 55 54 53 55 54 53 53 52 51
57 59 57 56 55 55 54 55 54 55 55 55 54 54 54 54 53 53 53 53 53 52 52 52 52 52 52 52 52 51 51 50 51 50 48 47 47 46 45 46 46 46 45 46 46 47 46 46 46 45 44 45 46 46 45 45 45 44 44 44 43 43 44 45 46 47 48 51 51 52 53 53 54 54 52 52 53 54 51 52 52 54 54 53 53
57 55 55 54 53 53 52 51 52 51 51 51 51 51 51 51 52 51 51 50 50 50 50 49 49 49 49 48 48 49 48 48 47 47 46 45 45 45 44 44 44 44 44 43 44 45 44 44 44 44 44 44 44 44 44 44 43 43 44 43 42 41 41 41 42 44 47 49 50 50 51 53 53 53 53 53 51 51 52 53 53 51 52 52 53
54 53 53 52 52 51 51 51 50 49 49 49 49 48 48 49 49 50 50 50 49 49 48 47 47 47 47 47 47 47 47 46 46 45 45 45 45 45 44 44 43 43 43 43 44 43 43 43 43 43 43 43 43 43 43 42 42 41 41 41 41 40 39 39 41 43 45 46 47 48 50 51 51 52 51 51 51 51 51 51 50 52 52 52 52
51 51 50 50 49 49 49 49 48 49 47 47 47 47 47 46 46 47 47 47 47 47 45 46 46 46 47 46 46 46 46 45 45 45 44 44 44 44 44 44 43 42 43 42 42 42 42 42 42 42 42 42 42 42 42 41 40 40 40 39 39 38 37 38 41 43 43 43 44 47 50 51 51 52 52 52 52 50 50 48 48 48 49 49 50
49 49 48 47 47 47 47 47 47 46 46 46 45 45 45 45 45 45 45 46 46 45 46 46 46 45 45 45 45 45 46 45 44 43 43 43 43 43 43 43 44 43 42 42 41 41 41 41 41 41 41 41 41 41 40 41 39 39 38 37 37 37 35 36 39 41 39 43 46 47 49 50 50 50 48 47 47 47 47 48 48 47 48 48 48
50 51 50 50 49 48 48 47 45 45 45 45 44 44 44 44 44 44 43 44 44 44 44 45 45 45 45 45 45 44 44 44 43 43 43 43 43 43 43 43 43 42 41 41 41 40 40 40 40 40 40 39 39 39 39 38 37 36 36 35 35 34 33 35 38 38 40 43 46 48 49 49 49 46 43 44 44 45 45 45 45 45 46 45 46
48 47 47 47 47 47 47 46 46 46 46 46 46 45 45 45 44 45 45 44 44 44 43 43 44 44 44 44 44 44 43 43 42 42 42 42 42 42 42 41 41 41 41 40 40 39 39 39 38 38 37 38 37 38 37 36 36 35 35 35 34 34 34 35 37 36 38 39 48 48 48 49 49 47 46 45 44 43 44 45 44 43 44 42 45